STARLINK-37114, 68561

Orbit data source: Space-Track

STARLINK-37114, 68561 is a payload satellite owned by SpaceX/Seattle (US) in LEO that was launched on Thu, 02 Apr 2026 UTC via an FALCON 9 launch vehicle from the Air Force Eastern Test Range (AFETR). Payload-class satellites include a variety of spacecraft equipped with specific instruments for various scientific and technological missions. These include communications satellites like Starlink; space stations such as the ISS; scientific satellites like the Hubble; Earth observation satellites from companies like Planet Labs, Umbra, and HawkEye 360; GPS; miniature CubeSats for education and research; and military/defense satellites.

Loading next visibility...
Identifier
68561, 2026-070V
Orbit
LEO
Country
Flag of USUS
Related business
Manufacturer
SpaceX/Seattle
Mission
Operational spacecraft
Bus & Motor
STARLINK V2MO, Unknown motor
Mass
575 kg wet, ~530 kg dry
Launch date (UTC)
2026-04-02 (2 months ago)
Launch vehicle
FALCON 9
Launch site
Air Force Eastern Test Range (AFETR)
Object type
Payload
Rocket body
Debris
Shape & HBR
Unknown shape, 14.5 m
Radar Cross Section
RCS unknown

Expand to show TLE details & history
Last TLE update: 1 day ago

TLE from 1 day ago
0 STARLINK-37114
1 68561U 26070V   26145.00002315  .00043680  00000-0  12978-2 0  9990
2 68561  53.1589   7.4686 0000181   6.3032 131.7076 15.34365104  6041
Epoch: 2026-05-25T00:00Z
TLE epoch observation values (Epoch: 2026-05-25T00:00:02.000Z)
Latitude
32.47308°
Longitude
-83.43897°
Altitude
465.005 km
Speed
7.638 km/s
True Right ascension
10h 36m 39s
True Declination
32° 18' 39"
Sunlit
Object was in daylight at epoch
Visualization orbit readout
Latitude
Unknown
Longitude
Unknown
Altitude
Unknown
Speed
Unknown
Apparent Right ascension
Unknown
Apparent Declination
Unknown
Sunlit
N/A
Visualization observer readout
Local Sidereal Time
09:25:08
Azimuth
Unknown
Elevation
Unknown
Doppler factor
Unknown
Orbital elements
Apogee altitude
463.188 km
Perigee altitude
462.94 km
Semi-major axis
6,841.201 km
Eccentricity
0.00002
Inclination
53.1589°
RAAN
7.4686°
Arg. of periapsis
6.3032°
True anomaly
131.70915°
Mean anomaly
131.7076°
Eccentric anomaly
131.70837°
Mean motion
3.8357 °/min
Orbital period
93.86 mins
BSTAR
0.0012978
Loading maneuver chart data...
Computing Atmospheric mass density...
Loading historical data...
Loading historical data...
Loading historical data...
Loading historical data...
Loading historical data...
Loading historical data...
Loading historical data...

Documentation

Showing up to 5 results
|